| time (UTC) | temp F | wind direction | speed knots | gust knots | rain 1hr in | rain 24hr in | rain mn in | humidity % | barometer mb |
| 20260505064035 | 57 | 0 | 0.0 | 3.5 | 0.00 | 0.00 | 0.00 | 66 | 1013.5 |
| 20260505063532 | 57 | 0 | 0.0 | 3.5 | 0.00 | 0.00 | 0.00 | 66 | 1013.5 |
| 20260505063050 | 56 | 5 | 0.0 | 3.5 | 0.00 | 0.00 | 0.00 | 66 | 1013.4 |
| 20260505062533 | 56 | 0 | 0.0 | 0.0 | 0.00 | 0.00 | 0.00 | 68 | 1013.5 |
| 20260505062032 | 55 | 0 | 0.0 | 0.0 | 0.00 | 0.00 | 0.00 | 70 | 1013.4 |
| 20260505061551 | 55 | 0 | 0.0 | 0.0 | 0.00 | 0.00 | 0.00 | 71 | 1013.4 |
| 20260505061033 | 55 | 0 | 0.0 | 0.0 | 0.00 | 0.00 | 0.00 | 73 | 1013.5 |
| 20260505060535 | 55 | 0 | 0.0 | 0.0 | 0.00 | 0.00 | 0.00 | 73 | 1013.4 |
| 20260505060055 | 55 | 0 | 0.0 | 0.0 | 0.00 | 0.00 | 0.00 | 74 | 1013.5 |
| 20260505055535 | 55 | 0 | 0.0 | 0.0 | 0.00 | 0.00 | 0.00 | 74 | 1013.5 |
| 20260505055033 | 55 | 0 | 0.0 | 0.0 | 0.00 | 0.00 | 0.00 | 74 | 1013.5 |
| 20260505054551 | 55 | 0 | 0.0 | 0.0 | 0.00 | 0.00 | 0.00 | 75 | 1013.5 |
| 20260505054033 | 55 | 0 | 0.0 | 0.0 | 0.00 | 0.00 | 0.00 | 75 | 1013.5 |
| 20260505053532 | 55 | 0 | 0.0 | 0.0 | 0.00 | 0.00 | 0.00 | 74 | 1013.5 |
| 20260505053055 | 55 | 0 | 0.0 | 0.0 | 0.00 | 0.00 | 0.00 | 75 | 1013.5 |
| 20260505052532 | 55 | 0 | 0.0 | 0.0 | 0.00 | 0.00 | 0.00 | 75 | 1013.4 |
| 20260505052034 | 55 | 0 | 0.0 | 0.0 | 0.00 | 0.00 | 0.00 | 75 | 1013.5 |
| 20260505051602 | 56 | 0 | 0.0 | 0.0 | 0.00 | 0.00 | 0.00 | 76 | 1013.4 |
| 20260505051033 | 56 | 0 | 0.0 | 0.0 | 0.00 | 0.00 | 0.00 | 75 | 1013.5 |
| 20260505050533 | 56 | 0 | 0.0 | 0.0 | 0.00 | 0.00 | 0.00 | 73 | 1013.5 |
| 20260505050103 | 56 | 0 | 0.0 | 0.0 | 0.00 | 0.00 | 0.00 | 74 | 1013.4 |
| 20260505041547 | 57 | 0 | 0.0 | 0.0 | 0.00 | 0.00 | 0.00 | 72 | 1013.3 |
| 20260505041033 | 57 | 0 | 0.0 | 0.0 | 0.00 | 0.00 | 0.00 | 71 | 1013.3 |
| 20260505040533 | 57 | 0 | 0.0 | 0.0 | 0.00 | 0.00 | 0.00 | 71 | 1013.3 |
| 20260505040050 | 58 | 0 | 0.0 | 0.0 | 0.00 | 0.00 | 0.00 | 71 | 1013.4 |
| 20260505035534 | 58 | 0 | 0.0 | 0.0 | 0.00 | 0.00 | 0.00 | 73 | 1013.4 |
| 20260505035032 | 58 | 0 | 0.0 | 0.0 | 0.00 | 0.00 | 0.00 | 72 | 1013.5 |
| 20260505034542 | 58 | 0 | 0.0 | 0.0 | 0.00 | 0.00 | 0.00 | 72 | 1013.4 |
| 20260505034033 | 59 | 0 | 0.0 | 0.0 | 0.00 | 0.00 | 0.00 | 71 | 1013.4 |
| 20260505033533 | 59 | 0 | 0.0 | 0.0 | 0.00 | 0.00 | 0.00 | 72 | 1013.4 |
| 20260505033042 | 59 | 0 | 0.0 | 0.0 | 0.00 | 0.00 | 0.00 | 71 | 1013.3 |
| 20260505032533 | 59 | 0 | 0.0 | 0.0 | 0.00 | 0.00 | 0.00 | 70 | 1013.3 |
| 20260505032036 | 59 | 0 | 0.0 | 0.0 | 0.00 | 0.00 | 0.00 | 71 | 1013.2 |
| 20260505031549 | 60 | 0 | 0.0 | 0.0 | 0.00 | 0.00 | 0.00 | 71 | 1013.3 |
| 20260505031033 | 60 | 0 | 0.0 | 0.0 | 0.00 | 0.00 | 0.00 | 69 | 1013.4 |
| 20260505030533 | 60 | 0 | 0.0 | 0.0 | 0.00 | 0.00 | 0.00 | 68 | 1013.3 |
| 20260505030040 | 60 | 0 | 0.0 | 0.0 | 0.00 | 0.00 | 0.00 | 69 | 1013.4 |
| 20260505025532 | 60 | 0 | 0.0 | 0.0 | 0.00 | 0.00 | 0.00 | 68 | 1013.3 |
| 20260505025033 | 60 | 0 | 0.0 | 0.0 | 0.00 | 0.00 | 0.00 | 66 | 1013.3 |
| 20260505024544 | 61 | 0 | 0.0 | 0.0 | 0.00 | 0.00 | 0.00 | 66 | 1013.4 |
| 20260505024035 | 61 | 0 | 0.0 | 0.0 | 0.00 | 0.00 | 0.00 | 67 | 1013.5 |
| 20260505023536 | 61 | 0 | 0.0 | 0.0 | 0.00 | 0.00 | 0.00 | 66 | 1013.4 |
| 20260505023045 | 62 | 0 | 0.0 | 0.0 | 0.00 | 0.00 | 0.00 | 67 | 1013.4 |
| 20260505022533 | 62 | 0 | 0.0 | 0.0 | 0.00 | 0.00 | 0.00 | 66 | 1013.4 |
| 20260505022032 | 62 | 0 | 0.0 | 0.0 | 0.00 | 0.00 | 0.00 | 66 | 1013.3 |
| 20260505021542 | 62 | 0 | 0.0 | 0.9 | 0.00 | 0.00 | 0.00 | 66 | 1013.3 |
| 20260505021032 | 62 | 0 | 0.0 | 0.9 | 0.00 | 0.00 | 0.00 | 64 | 1013.3 |
| 20260505020532 | 62 | 95 | 0.0 | 0.9 | 0.00 | 0.00 | 0.00 | 65 | 1013.3 |
| 20260505020040 | 62 | 0 | 0.0 | 0.9 | 0.00 | 0.00 | 0.00 | 64 | 1013.3 |
| 20260505015537 | 63 | 0 | 0.0 | 1.7 | 0.00 | 0.00 | 0.00 | 65 | 1013.4 |
| 20260505015035 | 63 | 0 | 0.0 | 1.7 | 0.00 | 0.00 | 0.00 | 64 | 1013.3 |
| 20260505014549 | 63 | 0 | 0.0 | 0.0 | 0.00 | 0.00 | 0.00 | 64 | 1013.3 |
| 20260505014038 | 63 | 0 | 0.0 | 1.7 | 0.00 | 0.00 | 0.00 | 65 | 1013.3 |
| 20260505013532 | 63 | 0 | 0.0 | 1.7 | 0.00 | 0.00 | 0.00 | 66 | 1013.2 |
| 20260505013056 | 63 | 0 | 0.0 | 0.9 | 0.00 | 0.00 | 0.00 | 68 | 1013.2 |
| 20260505012535 | 63 | 0 | 0.0 | 0.9 | 0.00 | 0.00 | 0.00 | 64 | 1013.0 |
| 20260505012033 | 63 | 0 | 0.0 | 0.0 | 0.00 | 0.00 | 0.00 | 67 | 1013.0 |
| 20260505011543 | 63 | 0 | 0.0 | 0.0 | 0.00 | 0.00 | 0.00 | 65 | 1012.9 |
| 20260505011032 | 64 | 0 | 0.0 | 0.0 | 0.00 | 0.00 | 0.00 | 67 | 1012.9 |
| 20260505010533 | 64 | 0 | 0.0 | 0.9 | 0.00 | 0.00 | 0.00 | 67 | 1012.9 |
| 20260505010043 | 64 | 0 | 0.0 | 2.6 | 0.00 | 0.00 | 0.00 | 67 | 1012.8 |
| 20260505005534 | 64 | 0 | 0.0 | 2.6 | 0.00 | 0.00 | 0.00 | 66 | 1012.8 |
| 20260505005033 | 64 | 0 | 0.0 | 0.0 | 0.00 | 0.00 | 0.00 | 67 | 1012.7 |
| 20260505004541 | 65 | 0 | 0.0 | 0.0 | 0.00 | 0.00 | 0.00 | 67 | 1012.7 |
| 20260505004032 | 65 | 0 | 0.0 | 0.0 | 0.00 | 0.00 | 0.00 | 66 | 1012.5 |
| 20260505003533 | 66 | 0 | 0.0 | 0.0 | 0.00 | 0.00 | 0.00 | 66 | 1012.5 |
| 20260505003039 | 66 | 0 | 0.0 | 0.0 | 0.00 | 0.00 | 0.00 | 64 | 1012.4 |
| 20260505002533 | 67 | 0 | 0.0 | 1.7 | 0.00 | 0.00 | 0.00 | 64 | 1012.4 |
| 20260505002034 | 67 | 0 | 0.0 | 1.7 | 0.00 | 0.00 | 0.00 | 63 | 1012.4 |
| 20260505001544 | 68 | 0 | 0.0 | 1.7 | 0.00 | 0.00 | 0.00 | 62 | 1012.3 |
| 20260505001034 | 68 | 0 | 0.0 | 0.0 | 0.00 | 0.00 | 0.00 | 61 | 1012.3 |
| 20260505000535 | 69 | 0 | 0.0 | 0.0 | 0.00 | 0.00 | 0.00 | 59 | 1012.4 |
| 20260505000053 | 69 | 0 | 0.0 | 0.0 | 0.00 | 0.00 | 0.00 | 60 | 1012.4 |
| 20260504235533 | 70 | 0 | 0.0 | 0.0 | 0.00 | 0.00 | 0.00 | 58 | 1012.4 |
| 20260504235035 | 70 | 0 | 0.0 | 0.0 | 0.00 | 0.00 | 0.00 | 57 | 1012.4 |
| 20260504234541 | 70 | 0 | 0.0 | 0.0 | 0.00 | 0.00 | 0.00 | 56 | 1012.3 |
| 20260504234033 | 71 | 0 | 0.0 | 0.9 | 0.00 | 0.00 | 0.00 | 56 | 1012.2 |
| 20260504233533 | 71 | 0 | 0.0 | 0.9 | 0.00 | 0.00 | 0.00 | 55 | 1012.2 |
| 20260504233055 | 71 | 0 | 0.0 | 2.6 | 0.00 | 0.00 | 0.00 | 54 | 1012.2 |
| 20260504232534 | 72 | 0 | 0.0 | 2.6 | 0.00 | 0.00 | 0.00 | 53 | 1012.1 |
| 20260504232035 | 72 | 0 | 0.0 | 2.6 | 0.00 | 0.00 | 0.00 | 52 | 1012.2 |
| 20260504231546 | 72 | 0 | 0.0 | 1.7 | 0.00 | 0.00 | 0.00 | 52 | 1012.2 |
| 20260504231032 | 72 | 0 | 0.0 | 4.3 | 0.00 | 0.00 | 0.00 | 51 | 1012.2 |
| 20260504230534 | 72 | 0 | 0.0 | 4.3 | 0.00 | 0.00 | 0.00 | 51 | 1012.1 |
| 20260504230037 | 72 | 360 | 0.9 | 4.3 | 0.00 | 0.00 | 0.00 | 50 | 1012.3 |
| 20260504225532 | 72 | 0 | 1.7 | 5.2 | 0.00 | 0.00 | 0.00 | 49 | 1012.3 |
| 20260504225036 | 73 | 5 | 1.7 | 5.2 | 0.00 | 0.00 | 0.00 | 49 | 1012.3 |
| 20260504224543 | 73 | 27 | 0.9 | 5.2 | 0.00 | 0.00 | 0.00 | 49 | 1012.4 |
| 20260504224031 | 73 | 355 | 1.7 | 5.2 | 0.00 | 0.00 | 0.00 | 49 | 1012.3 |
| 20260504223533 | 73 | 336 | 0.9 | 5.2 | 0.00 | 0.00 | 0.00 | 48 | 1012.4 |
| 20260504223050 | 73 | 55 | 0.9 | 4.3 | 0.00 | 0.00 | 0.00 | 48 | 1012.4 |
| 20260504222534 | 73 | 260 | 0.9 | 4.3 | 0.00 | 0.00 | 0.00 | 48 | 1012.4 |
| 20260504222033 | 73 | 24 | 1.7 | 4.3 | 0.00 | 0.00 | 0.00 | 48 | 1012.4 |
| 20260504221541 | 73 | 64 | 1.7 | 4.3 | 0.00 | 0.00 | 0.00 | 47 | 1012.4 |
| 20260504221036 | 73 | 319 | 0.9 | 4.3 | 0.00 | 0.00 | 0.00 | 47 | 1012.4 |
| 20260504220533 | 73 | 339 | 1.7 | 4.3 | 0.00 | 0.00 | 0.00 | 48 | 1012.4 |
| 20260504220056 | 73 | 0 | 1.7 | 4.3 | 0.00 | 0.00 | 0.00 | 49 | 1012.5 |
| 20260504215532 | 73 | 321 | 1.7 | 4.3 | 0.00 | 0.00 | 0.00 | 51 | 1012.6 |
| 20260504215034 | 73 | 329 | 1.7 | 4.3 | 0.00 | 0.00 | 0.00 | 48 | 1012.6 |
| 20260504214548 | 73 | 0 | 0.0 | 4.3 | 0.00 | 0.00 | 0.00 | 48 | 1012.7 |
| 20260504214034 | 73 | 345 | 0.0 | 4.3 | 0.00 | 0.00 | 0.00 | 50 | 1012.7 |
| 20260504213534 | 73 | 0 | 0.9 | 4.3 | 0.00 | 0.00 | 0.00 | 50 | 1012.8 |
| 20260504213044 | 73 | 0 | 0.9 | 7.0 | 0.00 | 0.00 | 0.00 | 51 | 1012.7 |
| 20260504212532 | 73 | 326 | 1.7 | 7.0 | 0.00 | 0.00 | 0.00 | 48 | 1012.7 |
| 20260504212034 | 73 | 296 | 0.9 | 4.3 | 0.00 | 0.00 | 0.00 | 50 | 1012.6 |
| 20260504211542 | 73 | 153 | 0.0 | 4.3 | 0.00 | 0.00 | 0.00 | 48 | 1012.5 |
| 20260504211034 | 74 | 272 | 0.0 | 4.3 | 0.00 | 0.00 | 0.00 | 47 | 1012.5 |
| 20260504210537 | 74 | 0 | 0.9 | 4.3 | 0.00 | 0.00 | 0.00 | 49 | 1012.4 |
| 20260504210044 | 74 | 304 | 0.9 | 5.2 | 0.00 | 0.00 | 0.00 | 49 | 1012.3 |
| 20260504205531 | 73 | 5 | 0.9 | 7.8 | 0.00 | 0.00 | 0.00 | 48 | 1012.4 |
| 20260504205034 | 73 | 338 | 2.6 | 7.8 | 0.00 | 0.00 | 0.00 | 47 | 1012.3 |
| 20260504204550 | 73 | 0 | 0.9 | 3.5 | 0.00 | 0.00 | 0.00 | 48 | 1012.5 |
| 20260504204032 | 73 | 0 | 0.0 | 5.2 | 0.00 | 0.00 | 0.00 | 48 | 1012.6 |
| 20260504203533 | 73 | 0 | 0.0 | 5.2 | 0.00 | 0.00 | 0.00 | 48 | 1012.7 |
| 20260504203040 | 73 | 156 | 0.9 | 7.0 | 0.00 | 0.00 | 0.00 | 47 | 1012.7 |
| 20260504202532 | 74 | 5 | 0.9 | 7.0 | 0.00 | 0.00 | 0.00 | 46 | 1012.7 |
| 20260504202033 | 74 | 321 | 0.9 | 7.0 | 0.00 | 0.00 | 0.00 | 49 | 1012.7 |
| 20260504201603 | 74 | 284 | 0.9 | 7.0 | 0.00 | 0.00 | 0.00 | 45 | 1012.7 |
| 20260504201037 | 74 | 336 | 0.9 | 8.7 | 0.00 | 0.00 | 0.00 | 45 | 1012.8 |
| 20260504200533 | 74 | 63 | 0.0 | 8.7 | 0.00 | 0.00 | 0.00 | 46 | 1012.7 |
| 20260504200045 | 74 | 94 | 2.6 | 8.7 | 0.00 | 0.00 | 0.00 | 46 | 1012.7 |
| 20260504195533 | 75 | 30 | 0.9 | 7.8 | 0.00 | 0.00 | 0.00 | 46 | 1012.8 |
| 20260504195033 | 75 | 0 | 0.0 | 4.3 | 0.00 | 0.00 | 0.00 | 45 | 1012.7 |
| 20260504194553 | 74 | 93 | 0.9 | 4.3 | 0.00 | 0.00 | 0.00 | 48 | 1012.9 |
| 20260504194033 | 74 | 67 | 0.0 | 5.2 | 0.00 | 0.00 | 0.00 | 45 | 1012.8 |
| 20260504193534 | 74 | 79 | 0.0 | 5.2 | 0.00 | 0.00 | 0.00 | 47 | 1013.0 |
| 20260504193050 | 74 | 331 | 1.7 | 5.2 | 0.00 | 0.00 | 0.00 | 46 | 1013.0 |
| 20260504192533 | 74 | 34 | 0.9 | 6.1 | 0.00 | 0.00 | 0.00 | 50 | 1013.1 |
| 20260504192033 | 74 | 20 | 0.9 | 6.1 | 0.00 | 0.00 | 0.00 | 47 | 1012.9 |
| 20260504191543 | 74 | 127 | 0.9 | 4.3 | 0.00 | 0.00 | 0.00 | 45 | 1013.0 |
| 20260504191035 | 74 | 30 | 0.0 | 3.5 | 0.00 | 0.00 | 0.00 | 47 | 1013.2 |
| 20260504190536 | 73 | 0 | 0.9 | 3.5 | 0.00 | 0.00 | 0.00 | 46 | 1013.1 |
| 20260504190058 | 72 | 0 | 0.0 | 4.3 | 0.00 | 0.00 | 0.00 | 46 | 1013.2 |
| 20260504185536 | 72 | 277 | 0.0 | 4.3 | 0.00 | 0.00 | 0.00 | 46 | 1013.4 |
| 20260504185029 | 73 | 307 | 0.9 | 2.6 | 0.00 | 0.00 | 0.00 | 48 | 1013.5 |
| 20260504184557 | 73 | 0 | 0.0 | 1.7 | 0.00 | 0.00 | 0.00 | 47 | 1013.5 |
| 20260504184037 | 74 | 0 | 0.0 | 4.3 | 0.00 | 0.00 | 0.00 | 48 | 1013.7 |
| 20260504183534 | 74 | 59 | 0.0 | 4.3 | 0.00 | 0.00 | 0.00 | 47 | 1013.6 |
| 20260504183050 | 74 | 339 | 1.7 | 4.3 | 0.00 | 0.00 | 0.00 | 45 | 1013.7 |
| 20260504182533 | 74 | 141 | 0.9 | 3.5 | 0.00 | 0.00 | 0.00 | 46 | 1013.8 |
| 20260504182033 | 74 | 163 | 0.9 | 3.5 | 0.00 | 0.00 | 0.00 | 43 | 1013.8 |
| 20260504181551 | 74 | 129 | 0.9 | 5.2 | 0.00 | 0.00 | 0.00 | 46 | 1013.8 |
| 20260504181036 | 74 | 215 | 1.7 | 5.2 | 0.00 | 0.00 | 0.00 | 42 | 1013.8 |
| 20260504180534 | 74 | 124 | 0.9 | 4.3 | 0.00 | 0.00 | 0.00 | 46 | 1014.1 |
| 20260504180053 | 75 | 360 | 0.9 | 6.1 | 0.00 | 0.00 | 0.00 | 45 | 1014.0 |
| 20260504175534 | 74 | 23 | 0.9 | 6.1 | 0.00 | 0.00 | 0.00 | 47 | 1014.1 |
| 20260504175034 | 74 | 101 | 0.9 | 4.3 | 0.00 | 0.00 | 0.00 | 47 | 1014.2 |
| 20260504174545 | 73 | 355 | 0.9 | 4.3 | 0.00 | 0.00 | 0.00 | 45 | 1014.2 |
| 20260504174034 | 73 | 326 | 0.9 | 7.8 | 0.00 | 0.00 | 0.00 | 46 | 1014.3 |
| 20260504173536 | 72 | 132 | 1.7 | 7.8 | 0.00 | 0.00 | 0.00 | 48 | 1014.4 |
| 20260504173041 | 72 | 309 | 0.9 | 5.2 | 0.00 | 0.00 | 0.00 | 46 | 1014.3 |
| 20260504172533 | 71 | 155 | 0.9 | 5.2 | 0.00 | 0.00 | 0.00 | 47 | 1014.5 |
| 20260504172034 | 71 | 327 | 0.9 | 4.3 | 0.00 | 0.00 | 0.00 | 46 | 1014.5 |
| 20260504171540 | 71 | 21 | 1.7 | 8.7 | 0.00 | 0.00 | 0.00 | 45 | 1014.5 |
| 20260504171037 | 71 | 85 | 3.5 | 8.7 | 0.00 | 0.00 | 0.00 | 46 | 1014.6 |
| 20260504170534 | 71 | 302 | 2.6 | 8.7 | 0.00 | 0.00 | 0.00 | 44 | 1014.6 |
| 20260504151035 | 66 | 290 | 1.7 | 7.0 | 0.00 | 0.00 | 0.00 | 49 | 1016.2 |
| 20260504150536 | 66 | 355 | 0.9 | 7.0 | 0.00 | 0.00 | 0.00 | 50 | 1016.3 |
| 20260504141036 | 63 | 335 | 0.0 | 3.5 | 0.00 | 0.00 | 0.00 | 52 | 1016.4 |
| 20260504140534 | 63 | 355 | 1.7 | 3.5 | 0.00 | 0.00 | 0.00 | 52 | 1016.3 |
| 20260504130533 | 59 | 0 | 0.0 | 1.7 | 0.00 | 0.00 | 0.00 | 60 | 1016.4 |
| 20260504110534 | 47 | 0 | 0.0 | 0.0 | 0.00 | 0.00 | 0.00 | 79 | 1016.7 |
| 20260504100533 | 46 | 0 | 0.0 | 0.0 | 0.00 | 0.00 | 0.00 | 75 | 1016.4 |
| 20260504081549 | 47 | 0 | 0.0 | 0.0 | 0.00 | 0.00 | 0.00 | 71 | 1016.2 |
| 20260504081033 | 47 | 0 | 0.0 | 0.0 | 0.00 | 0.00 | 0.00 | 72 | 1016.2 |
| 20260504080538 | 47 | 0 | 0.0 | 0.0 | 0.00 | 0.00 | 0.00 | 73 | 1016.2 |